Location: Eboldshausen
(51.7766°N, 10.0050°E)
Time: 18:18:08
(UTC+00:00)

Cosmos 2034 Rocket - Pass Details

Date: 15 November 2025
Orbit: 958 x 998 km, 82.9° (Epoch: 10 December)

Event Time Altitude Azimuth Distance (km) Brightness Sun altitude
Rises 18:22:39 0° 188° (S) 3,638 7.1 -26.6°
Reaches altitude 10° 18:25:08 10° 188° (S) 2,700 6.3 -27.0°
Maximum altitude 18:31:20 89° 277° (W) 981 3.9 -27.9°
Drops below altitude 10° 18:37:39 10° 10° (N) 2,746 6.3 -28.9°
Sets 18:40:11 0° 11° (N) 3,704 7.0 -29.3°
